Weather History for Ubon Ratchathani, Thailand

Change the Weather History Date:

Friday, August 30, 2013

  Actual Average Record
Temperature  
Mean Temperature 82 °F -  
Max Temperature 91 °F 88 °F - ()
Min Temperature 74 °F 74 °F - ()
Cooling Degree Days 18    
Growing Degree Days 32 (Base 50)    
Moisture  
Dew Point 76 °F    
Average Humidity 85    
Maximum Humidity 100    
Minimum Humidity 65    
Precipitation  
Precipitation 0.00 in 0.39 in - ()
Sea Level Pressure  
Sea Level Pressure 29.74 in    
Wind  
Wind Speed 3 mph ()    
Max Wind Speed 8 mph    
Max Gust Speed -    
Visibility 5.5 miles    
Events      
T = Trace of Precipitation, MM = Missing Value Source: Averaged Metar Reports

Daily Weather History Graph

Daily Weather History Graph

Search for Another Location

Airport:

Trip Planner

Search our weather history database for the weather conditions in past years. The results will help you decide how hot, cold, wet, or windy it might be!

Date:

Astronomy

Aug. 30, 2013 Rise Set
Actual Time 5:47 AM ICT 6:14 PM ICT
Civil Twilight 5:26 AM ICT 6:36 PM ICT
Nautical Twilight 5:00 AM ICT 7:01 PM ICT
Astronomical Twilight 4:34 AM ICT 7:27 PM ICT
Moon 12:28 AM ICT (8/30) 1:37 PM ICT (8/30)
Length of Visible Light 13h 10m
Length of Day
12h 26m
Waning Crescent, 33% of the Moon is Illuminated
Aug 30
Waning Crescent
Sep 5
New
Sep 13
First Quarter
Sep 19
Full
Sep 27
Last Quarter

Hourly Weather History & Observations

Time (ICT) Temp. Heat Index Dew Point Humidity Pressure Visibility Wind Dir Wind Speed Gust Speed Precip Events Conditions
12:00 AM 75.2 °F - 73.4 °F 94% 29.77 in 5.0 mi SSE 3.5 mph - N/A   Mostly Cloudy
1:00 AM 73.4 °F - 73.4 °F 100% 29.77 in 5.6 mi SE 2.3 mph - N/A   Mostly Cloudy
4:00 AM 75.2 °F - 75.2 °F 100% 29.74 in 5.6 mi SE 2.3 mph - N/A   Mostly Cloudy
5:00 AM 75.2 °F - 75.2 °F 100% 29.74 in 5.0 mi SE 2.3 mph - N/A   Mostly Cloudy
6:00 AM 75.2 °F - 75.2 °F 100% 29.77 in 4.3 mi Calm Calm - N/A   Mostly Cloudy
6:30 AM 75.2 °F - 75.2 °F 100% 29.77 in 3.7 mi East 2.3 mph - N/A   Mostly Cloudy
7:00 AM 76 °F - 75 °F 97% 29.81 in 4 mi East 4.6 mph - -   Mist
7:00 AM 77.0 °F - 75.2 °F 94% 29.77 in 3.7 mi East 4.6 mph - N/A   Overcast
8:00 AM 77.0 °F - 75.2 °F 94% 29.80 in 5.0 mi SE 2.3 mph - N/A   Overcast
9:00 AM 77.0 °F - 75.2 °F 94% 29.83 in 6.2 mi East 4.6 mph - N/A   Overcast
10:00 AM 80.6 °F 87.1 °F 77.0 °F 89% 29.80 in 6.2 mi SE 2.3 mph - N/A   Scattered Clouds
11:00 AM 86.0 °F 96.9 °F 77.0 °F 74% 29.77 in 6.2 mi South 6.9 mph - N/A   Scattered Clouds
12:00 PM 86.0 °F 96.9 °F 77.0 °F 74% 29.74 in 6.2 mi SE 2.3 mph - N/A   Scattered Clouds
1:00 PM 86 °F - 76 °F 65% 29.72 in 6 mi South 4.6 mph - -   Scattered Clouds
1:00 PM 86.0 °F 96.9 °F 77.0 °F 74% 29.71 in 6.2 mi South 4.6 mph - N/A   Scattered Clouds
2:00 PM 89.6 °F 102.2 °F 77.0 °F 66% 29.68 in 6.2 mi SW 8.1 mph - N/A   Scattered Clouds
3:00 PM 87.8 °F 97.6 °F 75.2 °F 66% 29.65 in 6.2 mi South 5.8 mph - N/A   Scattered Clouds
4:00 PM 86.0 °F 95.1 °F 75.2 °F 70% 29.65 in 6.2 mi SSW 2.3 mph - N/A   Scattered Clouds
5:00 PM 86.0 °F 99.3 °F 78.8 °F 79% 29.65 in 6.2 mi SSE 1.2 mph - N/A   Scattered Clouds
5:30 PM 84.2 °F 92.3 °F 75.2 °F 74% 29.65 in 5.6 mi SE 5.8 mph - N/A   Scattered Clouds
6:00 PM 82.4 °F 89.5 °F 75.2 °F 79% 29.68 in 5.6 mi SE 3.5 mph - N/A   Scattered Clouds
7:00 PM 80 °F - 74 °F 79% 29.72 in 6 mi SE 2.3 mph - -   Mist
7:00 PM 80.6 °F 86.2 °F 75.2 °F 84% 29.71 in 5.6 mi SE 2.3 mph - N/A   Scattered Clouds
8:00 PM 78.8 °F - 75.2 °F 89% 29.71 in 5.6 mi East 2.3 mph - N/A   Scattered Clouds
9:00 PM 78.8 °F - 75.2 °F 89% 29.74 in 5.6 mi SSE 2.3 mph - N/A   Scattered Clouds
10:00 PM 78.8 °F - 75.2 °F 89% 29.77 in 5.6 mi SE 1.2 mph - N/A   Scattered Clouds